Time,TemperatureF,DewpointF,PressureIn,WindDirection,WindDirectionDegrees,WindSpeedMPH,WindSpeedGustMPH,Humidity,HourlyPrecipIn,Conditions,Clouds,dailyrainin,SolarRadiationWatts/m^2,SoftwareType,DateUTC
2013-07-03 00:00:00,74.8,68.2,30.17,WNW,302,3.0,4.0,80,0.00,,,0.00,0.00,VWS V14.01,2013-07-03 04:00:00,
2013-07-03 00:01:00,74.8,68.2,30.17,NW,319,2.0,4.0,80,0.00,,,0.00,0.00,VWS V14.01,2013-07-03 04:01:00,
2013-07-03 00:03:00,74.6,68.4,30.17,NW,308,2.0,7.0,81,0.00,,,0.00,0.00,VWS V14.01,2013-07-03 04:03:00,
2013-07-03 00:04:00,74.6,68.4,30.17,WNW,286,4.0,7.0,81,0.00,,,0.00,0.00,VWS V14.01,2013-07-03 04:04:00,
2013-07-03 00:05:00,74.6,68.4,30.17,SW,217,4.0,10.0,81,0.00,,,0.00,0.00,VWS V14.01,2013-07-03 04:05:00,
2013-07-03 00:09:00,74.6,68.4,30.17,WSW,253,6.0,14.0,81,0.00,,,0.00,0.00,VWS V14.01,2013-07-03 04:09:00,
2013-07-03 00:10:00,74.6,68.4,30.17,SW,214,3.0,14.0,81,0.00,,,0.00,0.00,VWS V14.01,2013-07-03 04:10:00,
2013-07-03 00:14:00,74.5,68.3,30.17,NW,323,0.0,10.0,81,0.00,,,0.00,0.00,VWS V14.01,2013-07-03 04:14:00,
2013-07-03 00:15:00,74.5,68.3,30.17,NW,323,0.0,10.0,81,0.00,,,0.00,0.00,VWS V14.01,2013-07-03 04:15:00,
2013-07-03 00:19:00,74.5,68.3,30.17,WNW,284,5.0,7.0,81,0.00,,,0.00,0.00,VWS V14.01,2013-07-03 04:19:00,
2013-07-03 00:20:00,74.5,68.3,30.17,West,279,5.0,7.0,81,0.00,,,0.00,0.00,VWS V14.01,2013-07-03 04:20:00,
2013-07-03 00:24:00,74.3,68.1,30.17,East,82,0.0,11.0,81,0.00,,,0.00,0.00,VWS V14.01,2013-07-03 04:24:00,
2013-07-03 00:25:00,74.3,68.1,30.17,East,82,0.0,11.0,81,0.00,,,0.00,0.00,VWS V14.01,2013-07-03 04:25:00,
2013-07-03 00:29:00,74.3,68.1,30.17,WNW,288,5.0,7.0,81,0.00,,,0.00,0.00,VWS V14.01,2013-07-03 04:29:00,
2013-07-03 00:30:00,74.3,68.1,30.17,West,269,7.0,7.0,81,0.00,,,0.00,0.00,VWS V14.01,2013-07-03 04:30:00,
2013-07-03 00:31:00,74.3,68.1,30.17,West,265,2.0,9.0,81,0.00,,,0.00,0.00,VWS V14.01,2013-07-03 04:31:00,
2013-07-03 00:32:00,74.1,67.9,30.17,West,259,1.0,9.0,81,0.00,,,0.00,0.00,VWS V14.01,2013-07-03 04:32:00,
2013-07-03 00:35:00,74.1,68.3,30.17,WNW,297,4.0,9.0,82,0.00,,,0.00,0.00,VWS V14.01,2013-07-03 04:35:00,
2013-07-03 00:37:00,74.1,68.3,30.17,WSW,244,0.0,6.0,82,0.00,,,0.00,0.00,VWS V14.01,2013-07-03 04:37:00,
2013-07-03 00:40:00,74.1,68.3,30.17,West,259,4.0,6.0,82,0.00,,,0.00,0.00,VWS V14.01,2013-07-03 04:40:00,
2013-07-03 00:42:00,73.9,68.1,30.17,West,259,5.0,5.0,82,0.00,,,0.00,0.00,VWS V14.01,2013-07-03 04:42:00,
2013-07-03 00:45:00,73.9,68.1,30.17,WSW,239,5.0,8.0,82,0.00,,,0.00,0.00,VWS V14.01,2013-07-03 04:45:00,
2013-07-03 00:46:00,73.9,68.1,30.17,WSW,238,5.0,8.0,82,0.00,,,0.00,0.00,VWS V14.01,2013-07-03 04:46:00,
2013-07-03 00:50:00,73.8,68.3,30.17,WNW,294,1.0,10.0,83,0.00,,,0.00,0.00,VWS V14.01,2013-07-03 04:50:00,
2013-07-03 00:51:00,73.8,68.3,30.17,WNW,294,0.0,2.0,83,0.00,,,0.00,0.00,VWS V14.01,2013-07-03 04:51:00,
2013-07-03 00:53:00,73.8,68.3,30.17,West,273,2.0,5.0,83,0.00,,,0.00,0.00,VWS V14.01,2013-07-03 04:53:00,
2013-07-03 00:55:00,73.8,68.3,30.17,WSW,247,5.0,7.0,83,0.00,,,0.00,0.00,VWS V14.01,2013-07-03 04:55:00,
2013-07-03 00:58:00,73.8,68.3,30.17,West,269,6.0,6.0,83,0.00,,,0.00,0.00,VWS V14.01,2013-07-03 04:58:00,
2013-07-03 01:00:00,73.8,68.3,30.18,SW,234,4.0,10.0,83,0.00,,,0.00,0.00,VWS V14.01,2013-07-03 05:00:00,
2013-07-03 01:03:00,73.8,69.3,30.18,WSW,257,2.0,7.0,86,0.00,,,0.00,0.00,VWS V14.01,2013-07-03 05:03:00,
2013-07-03 01:05:00,73.8,68.3,30.18,WSW,257,0.0,7.0,83,0.00,,,0.00,0.00,VWS V14.01,2013-07-03 05:05:00,
2013-07-03 01:07:00,73.8,68.3,30.18,SW,234,7.0,10.0,83,0.00,,,0.00,0.00,VWS V14.01,2013-07-03 05:07:00,
2013-07-03 01:10:00,73.6,68.1,30.18,West,271,5.0,10.0,83,0.00,,,0.00,0.00,VWS V14.01,2013-07-03 05:10:00,
2013-07-03 01:12:00,73.6,68.1,30.18,West,279,8.0,8.0,83,0.00,,,0.00,0.00,VWS V14.01,2013-07-03 05:12:00,
2013-07-03 01:15:00,73.6,68.1,30.18,SW,234,1.0,8.0,83,0.00,,,0.00,0.00,VWS V14.01,2013-07-03 05:15:00,
2013-07-03 01:17:00,73.6,68.1,30.18,SSW,209,7.0,7.0,83,0.00,,,0.00,0.00,VWS V14.01,2013-07-03 05:17:00,
2013-07-03 01:19:00,73.6,68.1,30.18,WNW,289,2.0,9.0,83,0.00,,,0.00,0.00,VWS V14.01,2013-07-03 05:19:00,
2013-07-03 01:20:00,73.6,68.1,30.18,SW,215,4.0,9.0,83,0.00,,,0.00,0.00,VWS V14.01,2013-07-03 05:20:00,
2013-07-03 01:24:00,73.6,68.1,30.18,WSW,243,9.0,9.0,83,0.00,,,0.00,0.00,VWS V14.01,2013-07-03 05:24:00,
2013-07-03 01:25:00,73.6,68.1,30.18,WSW,252,5.0,9.0,83,0.00,,,0.00,0.00,VWS V14.01,2013-07-03 05:25:00,
2013-07-03 01:29:00,73.6,68.1,30.18,West,266,0.0,11.0,83,0.00,,,0.00,0.00,VWS V14.01,2013-07-03 05:29:00,
2013-07-03 01:30:00,73.6,68.1,30.18,West,266,5.0,11.0,83,0.00,,,0.00,0.00,VWS V14.01,2013-07-03 05:30:00,
2013-07-03 01:34:00,73.6,68.1,30.18,WSW,238,5.0,10.0,83,0.00,,,0.00,0.00,VWS V14.01,2013-07-03 05:34:00,
2013-07-03 01:35:00,73.6,68.1,30.18,WSW,244,4.0,10.0,83,0.00,,,0.00,0.00,VWS V14.01,2013-07-03 05:35:00,
2013-07-03 01:39:00,73.6,68.5,30.18,SSW,207,4.0,9.0,84,0.00,,,0.00,0.00,VWS V14.01,2013-07-03 05:39:00,
2013-07-03 01:40:00,73.6,68.5,30.18,SSW,207,2.0,9.0,84,0.00,,,0.00,0.00,VWS V14.01,2013-07-03 05:40:00,
2013-07-03 01:44:00,73.6,68.1,30.18,SW,225,2.0,6.0,83,0.00,,,0.00,0.00,VWS V14.01,2013-07-03 05:44:00,
2013-07-03 01:45:00,73.6,68.1,30.18,West,265,5.0,6.0,83,0.00,,,0.00,0.00,VWS V14.01,2013-07-03 05:45:00,
2013-07-03 01:49:00,73.6,68.1,30.18,WSW,240,4.0,11.0,83,0.00,,,0.00,0.00,VWS V14.01,2013-07-03 05:49:00,
2013-07-03 01:50:00,73.6,68.1,30.18,West,273,5.0,11.0,83,0.00,,,0.00,0.00,VWS V14.01,2013-07-03 05:50:00,
2013-07-03 01:54:00,73.4,68.3,30.18,WSW,257,6.0,9.0,84,0.00,,,0.00,0.00,VWS V14.01,2013-07-03 05:54:00,
2013-07-03 01:55:00,73.4,68.3,30.18,West,261,5.0,9.0,84,0.00,,,0.00,0.00,VWS V14.01,2013-07-03 05:55:00,
2013-07-03 01:57:00,73.4,68.3,30.18,WSW,241,0.0,6.0,84,0.00,,,0.00,0.00,VWS V14.01,2013-07-03 05:57:00,
2013-07-03 01:59:00,73.4,68.3,30.18,WSW,245,0.0,6.0,84,0.00,,,0.00,0.00,VWS V14.01,2013-07-03 05:59:00,
2013-07-03 02:00:00,73.4,68.3,30.18,WSW,249,1.0,6.0,84,0.00,,,0.00,0.00,VWS V14.01,2013-07-03 06:00:00,
2013-07-03 02:02:00,73.4,68.3,30.18,SW,227,3.0,9.0,84,0.00,,,0.00,0.00,VWS V14.01,2013-07-03 06:02:00,
2013-07-03 02:05:00,73.4,68.3,30.18,WNW,291,5.0,9.0,84,0.00,,,0.00,0.00,VWS V14.01,2013-07-03 06:05:00,
2013-07-03 02:07:00,73.2,68.1,30.18,West,266,8.0,14.0,84,0.00,,,0.00,0.00,VWS V14.01,2013-07-03 06:07:00,
2013-07-03 02:10:00,73.2,68.1,30.18,SW,224,8.0,14.0,84,0.00,,,0.00,0.00,VWS V14.01,2013-07-03 06:10:00,
2013-07-03 02:12:00,73.2,68.1,30.18,WSW,248,5.0,11.0,84,0.00,,,0.00,0.00,VWS V14.01,2013-07-03 06:12:00,
2013-07-03 02:13:00,73.2,68.1,30.18,WSW,244,0.0,11.0,84,0.00,,,0.00,0.00,VWS V14.01,2013-07-03 06:13:00,
2013-07-03 02:15:00,73.2,68.1,30.18,WSW,244,0.0,11.0,84,0.00,,,0.00,0.00,VWS V14.01,2013-07-03 06:15:00,
2013-07-03 02:16:00,73.2,68.1,30.18,NW,304,0.0,1.0,84,0.00,,,0.00,0.00,VWS V14.01,2013-07-03 06:16:00,
2013-07-03 02:17:00,73.2,68.1,30.18,SSE,161,2.0,2.0,84,0.00,,,0.00,0.00,VWS V14.01,2013-07-03 06:17:00,
2013-07-03 02:20:00,73.2,68.1,30.18,West,264,6.0,10.0,84,0.00,,,0.00,0.00,VWS V14.01,2013-07-03 06:20:00,
2013-07-03 02:22:00,73.2,68.1,30.18,WSW,247,6.0,11.0,84,0.00,,,0.00,0.00,VWS V14.01,2013-07-03 06:22:00,
2013-07-03 02:24:00,73.2,68.1,30.18,WSW,249,5.0,11.0,84,0.00,,,0.00,0.00,VWS V14.01,2013-07-03 06:24:00,
2013-07-03 02:25:00,73.2,68.1,30.18,West,275,4.0,11.0,84,0.00,,,0.00,0.00,VWS V14.01,2013-07-03 06:25:00,
2013-07-03 02:26:00,73.2,68.1,30.18,WSW,240,10.0,12.0,84,0.00,,,0.00,0.00,VWS V14.01,2013-07-03 06:26:00,
2013-07-03 02:30:00,73.2,68.1,30.18,WSW,247,8.0,12.0,84,0.00,,,0.00,0.00,VWS V14.01,2013-07-03 06:30:00,
2013-07-03 02:31:00,73.2,68.1,30.18,SW,227,7.0,9.0,84,0.00,,,0.00,0.00,VWS V14.01,2013-07-03 06:31:00,
2013-07-03 02:32:00,73.2,68.1,30.18,SW,220,6.0,9.0,84,0.00,,,0.00,0.00,VWS V14.01,2013-07-03 06:32:00,
2013-07-03 02:35:00,73.2,68.1,30.18,WSW,245,7.0,9.0,84,0.00,,,0.00,0.00,VWS V14.01,2013-07-03 06:35:00,
2013-07-03 02:37:00,73.1,68.0,30.18,West,281,0.0,8.0,84,0.00,,,0.00,0.00,VWS V14.01,2013-07-03 06:37:00,
2013-07-03 02:40:00,73.1,68.0,30.18,WSW,240,5.0,10.0,84,0.00,,,0.00,0.00,VWS V14.01,2013-07-03 06:40:00,
2013-07-03 02:42:00,73.1,68.0,30.18,WSW,240,5.0,9.0,84,0.00,,,0.00,0.00,VWS V14.01,2013-07-03 06:42:00,
2013-07-03 02:43:00,73.1,68.0,30.18,West,262,2.0,9.0,84,0.00,,,0.00,0.00,VWS V14.01,2013-07-03 06:43:00,
2013-07-03 02:45:00,73.1,68.0,30.18,WNW,288,6.0,9.0,84,0.00,,,0.00,0.00,VWS V14.01,2013-07-03 06:45:00,
2013-07-03 02:48:00,73.1,68.0,30.18,West,270,6.0,8.0,84,0.00,,,0.00,0.00,VWS V14.01,2013-07-03 06:48:00,
2013-07-03 02:50:00,73.1,68.0,30.18,WSW,252,4.0,8.0,84,0.00,,,0.00,0.00,VWS V14.01,2013-07-03 06:50:00,
2013-07-03 02:53:00,73.1,68.0,30.18,West,269,2.0,8.0,84,0.00,,,0.00,0.00,VWS V14.01,2013-07-03 06:53:00,
2013-07-03 02:55:00,73.1,68.0,30.18,SW,225,8.0,8.0,84,0.00,,,0.00,0.00,VWS V14.01,2013-07-03 06:55:00,
2013-07-03 03:00:00,73.1,68.0,30.18,SW,236,0.0,4.0,84,0.00,,,0.00,0.00,VWS V14.01,2013-07-03 07:00:00,
2013-07-03 03:05:00,73.1,68.0,30.18,West,266,5.0,8.0,84,0.00,,,0.00,0.00,VWS V14.01,2013-07-03 07:05:00,
2013-07-03 03:10:00,73.1,68.0,30.18,WSW,254,7.0,10.0,84,0.00,,,0.00,0.00,VWS V14.01,2013-07-03 07:10:00,
2013-07-03 03:15:00,73.1,68.0,30.18,West,271,7.0,9.0,84,0.00,,,0.00,0.00,VWS V14.01,2013-07-03 07:15:00,
2013-07-03 03:16:00,73.1,68.0,30.18,SW,231,1.0,9.0,84,0.00,,,0.00,0.00,VWS V14.01,2013-07-03 07:16:00,
2013-07-03 03:20:00,72.9,67.8,30.18,WSW,252,9.0,9.0,84,0.00,,,0.00,0.00,VWS V14.01,2013-07-03 07:20:00,
2013-07-03 03:21:00,72.9,67.8,30.18,West,259,4.0,9.0,84,0.00,,,0.00,0.00,VWS V14.01,2013-07-03 07:21:00,
2013-07-03 03:25:00,72.9,67.8,30.18,WSW,248,7.0,9.0,84,0.00,,,0.00,0.00,VWS V14.01,2013-07-03 07:25:00,
2013-07-03 03:26:00,72.9,67.8,30.18,West,277,5.0,8.0,84,0.00,,,0.00,0.00,VWS V14.01,2013-07-03 07:26:00,
2013-07-03 03:30:00,72.9,67.8,30.18,WSW,246,0.0,9.0,84,0.00,,,0.00,0.00,VWS V14.01,2013-07-03 07:30:00,
2013-07-03 03:31:00,72.9,67.8,30.18,SSW,209,5.0,7.0,84,0.00,,,0.00,0.00,VWS V14.01,2013-07-03 07:31:00,
2013-07-03 03:35:00,72.9,67.8,30.18,WSW,242,4.0,7.0,84,0.00,,,0.00,0.00,VWS V14.01,2013-07-03 07:35:00,
2013-07-03 03:36:00,72.9,67.8,30.18,South,169,2.0,9.0,84,0.00,,,0.00,0.00,VWS V14.01,2013-07-03 07:36:00,
2013-07-03 03:39:00,72.9,67.8,30.18,SSW,198,5.0,9.0,84,0.00,,,0.00,0.00,VWS V14.01,2013-07-03 07:39:00,
2013-07-03 03:40:00,72.9,67.8,30.18,WSW,248,4.0,9.0,84,0.00,,,0.00,0.00,VWS V14.01,2013-07-03 07:40:00,
2013-07-03 03:44:00,72.9,67.8,30.18,WSW,238,0.0,7.0,84,0.00,,,0.00,0.00,VWS V14.01,2013-07-03 07:44:00,
2013-07-03 03:45:00,72.9,67.8,30.18,West,267,0.0,7.0,84,0.00,,,0.00,0.00,VWS V14.01,2013-07-03 07:45:00,
2013-07-03 03:49:00,72.7,67.6,30.18,WSW,250,8.0,8.0,84,0.00,,,0.00,0.00,VWS V14.01,2013-07-03 07:49:00,
2013-07-03 03:50:00,72.7,67.6,30.18,SW,232,6.0,8.0,84,0.00,,,0.00,0.00,VWS V14.01,2013-07-03 07:50:00,
2013-07-03 03:55:00,72.7,67.9,30.18,SW,234,2.0,6.0,85,0.00,,,0.00,0.00,VWS V14.01,2013-07-03 07:55:00,
2013-07-03 04:00:00,72.7,67.9,30.18,West,273,4.0,9.0,85,0.00,,,0.00,0.00,VWS V14.01,2013-07-03 08:00:00,
2013-07-03 04:01:00,72.7,67.9,30.18,SSW,213,6.0,9.0,85,0.00,,,0.00,0.00,VWS V14.01,2013-07-03 08:01:00,
2013-07-03 04:05:00,72.7,67.9,30.18,WSW,239,7.0,9.0,85,0.00,,,0.00,0.00,VWS V14.01,2013-07-03 08:05:00,
2013-07-03 04:06:00,72.7,67.9,30.18,WSW,244,5.0,9.0,85,0.00,,,0.00,0.00,VWS V14.01,2013-07-03 08:06:00,
2013-07-03 04:09:00,72.7,67.9,30.18,WSW,248,0.0,9.0,85,0.00,,,0.00,0.00,VWS V14.01,2013-07-03 08:09:00,
2013-07-03 04:10:00,72.7,67.9,30.18,WSW,248,0.0,9.0,85,0.00,,,0.00,0.00,VWS V14.01,2013-07-03 08:10:00,
2013-07-03 04:14:00,72.6,67.8,30.19,WSW,252,0.0,0.0,85,0.00,,,0.00,0.00,VWS V14.01,2013-07-03 08:14:00,
2013-07-03 04:15:00,72.6,67.8,30.19,WSW,252,0.0,7.0,85,0.00,,,0.00,0.00,VWS V14.01,2013-07-03 08:15:00,
2013-07-03 04:18:00,72.6,67.8,30.19,SSW,205,7.0,7.0,85,0.00,,,0.00,0.00,VWS V14.01,2013-07-03 08:18:00,
2013-07-03 04:20:00,72.6,67.8,30.19,SW,232,0.0,7.0,85,0.00,,,0.00,0.00,VWS V14.01,2013-07-03 08:20:00,
2013-07-03 04:23:00,72.6,67.8,30.19,WSW,255,4.0,5.0,85,0.00,,,0.00,0.00,VWS V14.01,2013-07-03 08:23:00,
2013-07-03 04:25:00,72.6,67.8,30.19,West,271,2.0,5.0,85,0.00,,,0.00,0.00,VWS V14.01,2013-07-03 08:25:00,
2013-07-03 04:28:00,72.6,68.2,30.19,WSW,240,0.0,9.0,86,0.00,,,0.00,0.00,VWS V14.01,2013-07-03 08:28:00,
2013-07-03 04:30:00,72.6,68.2,30.19,SW,234,1.0,9.0,86,0.00,,,0.00,0.00,VWS V14.01,2013-07-03 08:30:00,
2013-07-03 04:33:00,72.6,68.2,30.19,West,261,4.0,8.0,86,0.00,,,0.00,0.00,VWS V14.01,2013-07-03 08:33:00,
2013-07-03 04:35:00,72.6,68.2,30.19,SW,215,4.0,8.0,86,0.00,,,0.00,0.00,VWS V14.01,2013-07-03 08:35:00,
2013-07-03 04:38:00,72.6,68.2,30.19,WSW,255,2.0,8.0,86,0.00,,,0.00,0.00,VWS V14.01,2013-07-03 08:38:00,
2013-07-03 04:39:00,72.6,68.2,30.19,WSW,238,2.0,8.0,86,0.00,,,0.00,0.00,VWS V14.01,2013-07-03 08:39:00,
2013-07-03 04:40:00,72.6,68.2,30.19,WSW,238,2.0,8.0,86,0.00,,,0.00,0.00,VWS V14.01,2013-07-03 08:40:00,
2013-07-03 04:44:00,72.6,67.8,30.19,SW,235,4.0,6.0,85,0.00,,,0.00,0.00,VWS V14.01,2013-07-03 08:44:00,
2013-07-03 04:45:00,72.6,68.2,30.19,SW,234,6.0,9.0,86,0.00,,,0.00,0.00,VWS V14.01,2013-07-03 08:45:00,
2013-07-03 04:50:00,72.6,67.8,30.19,West,261,3.0,4.0,85,0.00,,,0.00,0.00,VWS V14.01,2013-07-03 08:50:00,
2013-07-03 04:54:00,72.6,67.8,30.19,SW,216,4.0,6.0,85,0.00,,,0.00,0.00,VWS V14.01,2013-07-03 08:54:00,
2013-07-03 04:55:00,72.6,67.8,30.19,SSW,213,8.0,10.0,85,0.00,,,0.00,0.00,VWS V14.01,2013-07-03 08:55:00,
2013-07-03 05:00:00,72.6,67.8,30.19,SW,216,4.0,6.0,85,0.00,,,0.00,0.00,VWS V14.01,2013-07-03 09:00:00,
2013-07-03 05:05:00,72.6,67.8,30.19,SW,231,5.0,5.0,85,0.00,,,0.00,0.00,VWS V14.01,2013-07-03 09:05:00,
2013-07-03 05:10:00,72.6,67.8,30.19,West,277,5.0,5.0,85,0.00,,,0.00,0.00,VWS V14.01,2013-07-03 09:10:00,
2013-07-03 05:15:00,72.6,67.8,30.20,WSW,250,4.0,5.0,85,0.00,,,0.00,0.00,VWS V14.01,2013-07-03 09:15:00,
2013-07-03 05:20:00,72.6,67.8,30.20,SW,228,7.0,8.0,85,0.00,,,0.00,0.00,VWS V14.01,2013-07-03 09:20:00,
2013-07-03 05:25:00,72.6,67.8,30.20,SSW,200,5.0,7.0,85,0.00,,,0.00,0.00,VWS V14.01,2013-07-03 09:25:00,
2013-07-03 05:30:00,72.6,67.8,30.20,SSW,213,4.0,9.0,85,0.00,,,0.00,0.00,VWS V14.01,2013-07-03 09:30:00,
2013-07-03 05:35:00,72.6,67.8,30.20,SSW,211,4.0,7.0,85,0.00,,,0.00,0.00,VWS V14.01,2013-07-03 09:35:00,
2013-07-03 05:40:00,72.4,67.6,30.20,SSW,195,1.0,6.0,85,0.00,,,0.00,0.00,VWS V14.01,2013-07-03 09:40:00,
2013-07-03 05:41:00,72.4,67.6,30.20,SSW,195,2.0,6.0,85,0.00,,,0.00,0.00,VWS V14.01,2013-07-03 09:41:00,
2013-07-03 05:45:00,72.4,67.6,30.20,SW,234,5.0,9.0,85,0.00,,,0.00,0.00,VWS V14.01,2013-07-03 09:45:00,
2013-07-03 05:46:00,72.4,67.6,30.20,SW,235,2.0,7.0,85,0.00,,,0.00,0.00,VWS V14.01,2013-07-03 09:46:00,
2013-07-03 05:49:00,72.4,67.6,30.20,South,190,6.0,9.0,85,0.00,,,0.00,5.00,VWS V14.01,2013-07-03 09:49:00,
2013-07-03 05:50:00,72.4,67.6,30.20,SSW,199,0.0,2.0,85,0.00,,,0.00,5.00,VWS V14.01,2013-07-03 09:50:00,
2013-07-03 05:55:00,72.4,67.6,30.20,SW,220,5.0,6.0,85,0.00,,,0.00,7.00,VWS V14.01,2013-07-03 09:55:00,
2013-07-03 06:00:00,72.4,67.6,30.21,WSW,243,0.0,0.0,85,0.00,,,0.00,9.00,VWS V14.01,2013-07-03 10:00:00,
2013-07-03 06:04:00,72.4,68.0,30.21,West,269,3.0,6.0,86,0.00,,,0.00,11.00,VWS V14.01,2013-07-03 10:04:00,
2013-07-03 06:05:00,72.4,68.0,30.21,WNW,298,4.0,4.0,86,0.00,,,0.00,12.00,VWS V14.01,2013-07-03 10:05:00,
2013-07-03 06:10:00,72.2,67.8,30.21,WSW,240,0.0,0.0,86,0.00,,,0.00,19.00,VWS V14.01,2013-07-03 10:10:00,
2013-07-03 06:15:00,72.2,67.8,30.21,SW,233,3.0,8.0,86,0.00,,,0.00,28.00,VWS V14.01,2013-07-03 10:15:00,
2013-07-03 06:20:00,72.2,67.8,30.21,SSW,213,2.0,4.0,86,0.00,,,0.00,30.00,VWS V14.01,2013-07-03 10:20:00,
2013-07-03 06:25:00,72.4,68.0,30.21,WSW,242,0.0,4.0,86,0.00,,,0.00,32.00,VWS V14.01,2013-07-03 10:25:00,
2013-07-03 06:26:00,72.4,68.0,30.21,SW,233,4.0,5.0,86,0.00,,,0.00,33.00,VWS V14.01,2013-07-03 10:26:00,
2013-07-03 06:30:00,72.4,68.0,30.22,West,267,0.0,5.0,86,0.00,,,0.00,35.00,VWS V14.01,2013-07-03 10:30:00,
2013-07-03 06:31:00,72.4,68.0,30.22,WSW,255,1.0,1.0,86,0.00,,,0.00,35.00,VWS V14.01,2013-07-03 10:31:00,
2013-07-03 06:35:00,72.4,68.0,30.22,SW,215,5.0,8.0,86,0.00,,,0.00,47.00,VWS V14.01,2013-07-03 10:35:00,
2013-07-03 06:36:00,72.4,68.0,30.22,West,261,3.0,6.0,86,0.00,,,0.00,54.00,VWS V14.01,2013-07-03 10:36:00,
2013-07-03 06:40:00,72.4,68.0,30.22,West,272,0.0,6.0,86,0.00,,,0.00,70.00,VWS V14.01,2013-07-03 10:40:00,
2013-07-03 06:41:00,72.4,68.0,30.22,SSW,209,8.0,8.0,86,0.00,,,0.00,74.00,VWS V14.01,2013-07-03 10:41:00,
2013-07-03 06:45:00,72.4,68.0,30.22,West,266,0.0,8.0,86,0.00,,,0.00,76.00,VWS V14.01,2013-07-03 10:45:00,
2013-07-03 06:46:00,72.6,68.2,30.22,West,266,0.0,0.0,86,0.00,,,0.00,77.00,VWS V14.01,2013-07-03 10:46:00,
2013-07-03 06:49:00,72.6,67.8,30.22,WSW,246,4.0,7.0,85,0.00,,,0.00,84.00,VWS V14.01,2013-07-03 10:49:00,
2013-07-03 06:50:00,72.6,67.8,30.22,WSW,251,4.0,7.0,85,0.00,,,0.00,84.00,VWS V14.01,2013-07-03 10:50:00,
2013-07-03 06:54:00,72.7,67.9,30.22,West,259,5.0,9.0,85,0.00,,,0.00,88.00,VWS V14.01,2013-07-03 10:54:00,
2013-07-03 06:55:00,72.7,67.9,30.22,West,259,1.0,4.0,85,0.00,,,0.00,84.00,VWS V14.01,2013-07-03 10:55:00,
2013-07-03 06:57:00,72.7,67.9,30.22,SW,235,4.0,6.0,85,0.00,,,0.00,77.00,VWS V14.01,2013-07-03 10:57:00,
2013-07-03 07:00:00,72.7,67.9,30.22,WSW,240,2.0,6.0,85,0.00,,,0.00,54.00,VWS V14.01,2013-07-03 11:00:00,
2013-07-03 07:02:00,72.7,67.9,30.22,SW,223,7.0,8.0,85,0.00,,,0.00,53.00,VWS V14.01,2013-07-03 11:02:00,
2013-07-03 07:05:00,72.9,67.8,30.22,West,263,1.0,8.0,84,0.00,,,0.00,70.00,VWS V14.01,2013-07-03 11:05:00,
2013-07-03 07:07:00,72.9,67.8,30.22,West,269,6.0,7.0,84,0.00,,,0.00,90.00,VWS V14.01,2013-07-03 11:07:00,
2013-07-03 07:08:00,72.9,67.8,30.22,SSW,194,0.0,7.0,84,0.00,,,0.00,97.00,VWS V14.01,2013-07-03 11:08:00,
2013-07-03 07:09:00,72.9,67.8,30.22,WSW,248,6.0,7.0,84,0.00,,,0.00,102.00,VWS V14.01,2013-07-03 11:09:00,
2013-07-03 07:10:00,72.9,67.8,30.22,WSW,246,10.0,10.0,84,0.00,,,0.00,100.00,VWS V14.01,2013-07-03 11:10:00,
2013-07-03 07:14:00,73.1,68.0,30.23,WSW,241,6.0,10.0,84,0.00,,,0.00,100.00,VWS V14.01,2013-07-03 11:14:00,
2013-07-03 07:15:00,73.1,68.0,30.23,WSW,244,5.0,10.0,84,0.00,,,0.00,100.00,VWS V14.01,2013-07-03 11:15:00,
2013-07-03 07:19:00,73.2,68.1,30.23,West,275,2.0,7.0,84,0.00,,,0.00,134.00,VWS V14.01,2013-07-03 11:19:00,
2013-07-03 07:20:00,73.2,68.1,30.23,West,275,2.0,7.0,84,0.00,,,0.00,134.00,VWS V14.01,2013-07-03 11:20:00,
2013-07-03 07:23:00,73.4,68.3,30.23,WNW,283,0.0,7.0,84,0.00,,,0.00,111.00,VWS V14.01,2013-07-03 11:23:00,
2013-07-03 07:25:00,73.4,68.3,30.23,West,279,1.0,1.0,84,0.00,,,0.00,102.00,VWS V14.01,2013-07-03 11:25:00,
2013-07-03 07:30:00,73.4,67.9,30.23,West,275,3.0,6.0,83,0.00,,,0.00,102.00,VWS V14.01,2013-07-03 11:30:00,
2013-07-03 07:35:00,73.6,68.1,30.23,WSW,240,0.0,0.0,83,0.00,,,0.00,72.00,VWS V14.01,2013-07-03 11:35:00,
2013-07-03 07:40:00,73.6,68.1,30.23,WSW,253,3.0,5.0,83,0.00,,,0.00,127.00,VWS V14.01,2013-07-03 11:40:00,
2013-07-03 07:45:00,73.6,68.1,30.23,West,277,0.0,4.0,83,0.00,,,0.00,158.00,VWS V14.01,2013-07-03 11:45:00,
2013-07-03 07:50:00,73.8,68.3,30.23,SW,226,7.0,7.0,83,0.00,,,0.00,146.00,VWS V14.01,2013-07-03 11:50:00,
2013-07-03 07:55:00,73.8,68.3,30.23,SW,232,1.0,5.0,83,0.00,,,0.00,77.00,VWS V14.01,2013-07-03 11:55:00,
2013-07-03 07:59:00,73.8,68.3,30.23,SSW,209,5.0,7.0,83,0.00,,,0.00,118.00,VWS V14.01,2013-07-03 11:59:00,
2013-07-03 08:00:00,73.8,68.3,30.23,SSW,209,2.0,7.0,83,0.00,,,0.00,118.00,VWS V14.01,2013-07-03 12:00:00,
2013-07-03 08:02:00,73.8,68.3,30.23,WSW,240,3.0,8.0,83,0.00,,,0.00,123.00,VWS V14.01,2013-07-03 12:02:00,
2013-07-03 08:05:00,73.8,68.3,30.23,West,262,2.0,9.0,83,0.00,,,0.00,132.00,VWS V14.01,2013-07-03 12:05:00,
2013-07-03 08:07:00,73.8,68.3,30.23,SW,227,3.0,6.0,83,0.00,,,0.00,121.00,VWS V14.01,2013-07-03 12:07:00,
2013-07-03 08:10:00,73.9,68.4,30.23,West,271,0.0,6.0,83,0.00,,,0.00,98.00,VWS V14.01,2013-07-03 12:10:00,
2013-07-03 08:12:00,73.9,68.4,30.23,NW,319,0.0,0.0,83,0.00,,,0.00,114.00,VWS V14.01,2013-07-03 12:12:00,
2013-07-03 08:15:00,73.9,68.4,30.23,NW,318,0.0,0.0,83,0.00,,,0.00,139.00,VWS V14.01,2013-07-03 12:15:00,
2013-07-03 08:16:00,74.1,68.6,30.23,West,263,0.0,1.0,83,0.00,,,0.00,151.00,VWS V14.01,2013-07-03 12:16:00,
2013-07-03 08:20:00,74.1,68.6,30.23,SW,225,0.0,0.0,83,0.00,,,0.00,123.00,VWS V14.01,2013-07-03 12:20:00,
2013-07-03 08:25:00,74.3,68.8,30.23,SSW,213,0.0,6.0,83,0.00,,,0.00,148.00,VWS V14.01,2013-07-03 12:25:00,
2013-07-03 08:30:00,74.3,68.8,30.24,WSW,240,8.0,8.0,83,0.00,,,0.00,162.00,VWS V14.01,2013-07-03 12:30:00,
2013-07-03 08:35:00,74.5,68.7,30.24,SSW,193,5.0,7.0,82,0.00,,,0.00,156.00,VWS V14.01,2013-07-03 12:35:00,
2013-07-03 08:40:00,74.6,68.8,30.24,SW,230,5.0,5.0,82,0.00,,,0.00,120.00,VWS V14.01,2013-07-03 12:40:00,
2013-07-03 08:45:00,74.8,68.9,30.24,West,274,6.0,7.0,82,0.00,,,0.00,113.00,VWS V14.01,2013-07-03 12:45:00,
2013-07-03 08:47:00,74.8,68.6,30.24,West,260,3.0,7.0,81,0.00,,,0.00,130.00,VWS V14.01,2013-07-03 12:47:00,
2013-07-03 08:50:00,74.8,68.6,30.24,WSW,241,7.0,8.0,81,0.00,,,0.00,134.00,VWS V14.01,2013-07-03 12:50:00,
2013-07-03 08:52:00,74.8,68.6,30.24,West,264,0.0,9.0,81,0.00,,,0.00,104.00,VWS V14.01,2013-07-03 12:52:00,
2013-07-03 08:55:00,75.0,68.8,30.24,SSW,193,4.0,9.0,81,0.00,,,0.00,79.00,VWS V14.01,2013-07-03 12:55:00,
2013-07-03 08:57:00,75.0,68.8,30.24,WNW,284,6.0,7.0,81,0.00,,,0.00,70.00,VWS V14.01,2013-07-03 12:57:00,
2013-07-03 09:00:00,75.0,68.8,30.24,West,271,1.0,7.0,81,0.00,,,0.00,98.00,VWS V14.01,2013-07-03 13:00:00,
2013-07-03 09:02:00,74.8,68.6,30.24,WSW,243,5.0,9.0,81,0.00,,,0.00,130.00,VWS V14.01,2013-07-03 13:02:00,
2013-07-03 09:05:00,74.8,68.6,30.24,SSW,207,6.0,9.0,81,0.00,,,0.00,165.00,VWS V14.01,2013-07-03 13:05:00,
2013-07-03 09:07:00,74.8,68.9,30.24,SW,219,0.0,6.0,82,0.00,,,0.00,253.00,VWS V14.01,2013-07-03 13:07:00,
2013-07-03 09:10:00,75.0,69.1,30.24,SW,235,4.0,6.0,82,0.00,,,0.00,262.00,VWS V14.01,2013-07-03 13:10:00,
2013-07-03 09:12:00,75.0,68.8,30.24,West,259,0.0,7.0,81,0.00,,,0.00,304.00,VWS V14.01,2013-07-03 13:12:00,
2013-07-03 09:15:00,75.2,69.0,30.24,WNW,283,5.0,7.0,81,0.00,,,0.00,304.00,VWS V14.01,2013-07-03 13:15:00,
2013-07-03 09:17:00,75.3,69.1,30.24,WNW,284,6.0,10.0,81,0.00,,,0.00,269.00,VWS V14.01,2013-07-03 13:17:00,
2013-07-03 09:20:00,75.3,67.6,30.24,WSW,238,6.0,10.0,77,0.00,,,0.00,297.00,VWS V14.01,2013-07-03 13:20:00,
2013-07-03 09:22:00,75.5,69.3,30.24,West,260,8.0,8.0,81,0.00,,,0.00,381.00,VWS V14.01,2013-07-03 13:22:00,
2013-07-03 09:25:00,75.7,69.1,30.24,WSW,252,4.0,5.0,80,0.00,,,0.00,422.00,VWS V14.01,2013-07-03 13:25:00,
2013-07-03 09:30:00,75.9,69.3,30.24,West,259,4.0,6.0,80,0.00,,,0.00,285.00,VWS V14.01,2013-07-03 13:30:00,
2013-07-03 09:35:00,76.0,69.0,30.24,West,260,8.0,9.0,79,0.00,,,0.00,295.00,VWS V14.01,2013-07-03 13:35:00,
2013-07-03 09:37:00,76.0,69.0,30.24,SW,232,14.0,15.0,79,0.00,,,0.00,288.00,VWS V14.01,2013-07-03 13:37:00,
2013-07-03 09:40:00,76.0,69.0,30.24,WSW,257,5.0,15.0,79,0.00,,,0.00,283.00,VWS V14.01,2013-07-03 13:40:00,
2013-07-03 09:42:00,76.0,69.0,30.24,WSW,248,12.0,12.0,79,0.00,,,0.00,320.00,VWS V14.01,2013-07-03 13:42:00,
2013-07-03 09:45:00,76.0,69.0,30.24,West,272,6.0,12.0,79,0.00,,,0.00,330.00,VWS V14.01,2013-07-03 13:45:00,
2013-07-03 09:47:00,76.0,69.0,30.24,West,281,2.0,10.0,79,0.00,,,0.00,294.00,VWS V14.01,2013-07-03 13:47:00,
2013-07-03 09:50:00,76.2,69.2,30.24,WSW,252,1.0,10.0,79,0.00,,,0.00,301.00,VWS V14.01,2013-07-03 13:50:00,
2013-07-03 09:52:00,76.4,69.4,30.24,West,261,6.0,8.0,79,0.00,,,0.00,269.00,VWS V14.01,2013-07-03 13:52:00,
2013-07-03 09:55:00,76.4,69.4,30.24,SW,231,0.0,8.0,79,0.00,,,0.00,281.00,VWS V14.01,2013-07-03 13:55:00,
2013-07-03 09:57:00,76.4,69.4,30.24,WSW,242,5.0,10.0,79,0.00,,,0.00,253.00,VWS V14.01,2013-07-03 13:57:00,
2013-07-03 10:00:00,76.2,69.2,30.24,WNW,285,6.0,10.0,79,0.00,,,0.00,229.00,VWS V14.01,2013-07-03 14:00:00,
2013-07-03 10:02:00,76.2,69.2,30.24,SW,236,6.0,11.0,79,0.00,,,0.00,250.00,VWS V14.01,2013-07-03 14:02:00,
2013-07-03 10:05:00,76.2,69.6,30.24,SSW,200,7.0,11.0,80,0.00,,,0.00,186.00,VWS V14.01,2013-07-03 14:05:00,
2013-07-03 10:06:00,76.2,69.6,30.24,West,269,7.0,9.0,80,0.00,,,0.00,213.00,VWS V14.01,2013-07-03 14:06:00,
2013-07-03 10:09:00,76.0,69.4,30.24,West,277,6.0,9.0,80,0.00,,,0.00,236.00,VWS V14.01,2013-07-03 14:09:00,
2013-07-03 10:10:00,76.0,69.4,30.24,West,277,5.0,9.0,80,0.00,,,0.00,236.00,VWS V14.01,2013-07-03 14:10:00,
2013-07-03 10:14:00,75.9,69.3,30.24,South,190,0.0,10.0,80,0.00,,,0.00,345.00,VWS V14.01,2013-07-03 14:14:00,
2013-07-03 10:15:00,75.9,69.3,30.24,South,190,0.0,10.0,80,0.00,,,0.00,345.00,VWS V14.01,2013-07-03 14:15:00,
2013-07-03 10:18:00,75.9,69.3,30.24,SW,217,5.0,7.0,80,0.00,,,0.00,302.00,VWS V14.01,2013-07-03 14:18:00,
2013-07-03 10:20:00,75.9,69.3,30.24,WSW,250,3.0,7.0,80,0.00,,,0.00,338.00,VWS V14.01,2013-07-03 14:20:00,
2013-07-03 10:23:00,76.0,69.4,30.24,SW,227,5.0,9.0,80,0.00,,,0.00,332.00,VWS V14.01,2013-07-03 14:23:00,
2013-07-03 10:25:00,76.0,69.4,30.24,West,263,6.0,9.0,80,0.00,,,0.00,329.00,VWS V14.01,2013-07-03 14:25:00,
2013-07-03 10:28:00,76.0,69.4,30.24,NW,309,4.0,9.0,80,0.00,,,0.00,338.00,VWS V14.01,2013-07-03 14:28:00,
2013-07-03 10:30:00,76.0,69.0,30.25,SSW,202,6.0,9.0,79,0.00,,,0.00,348.00,VWS V14.01,2013-07-03 14:30:00,
2013-07-03 10:35:00,76.7,70.1,30.25,WSW,242,0.0,0.0,80,0.00,,,0.00,320.00,VWS V14.01,2013-07-03 14:35:00,
2013-07-03 10:38:00,76.7,69.7,30.25,SSW,205,0.0,2.0,79,0.00,,,0.00,336.00,VWS V14.01,2013-07-03 14:38:00,
2013-07-03 10:40:00,76.9,69.9,30.25,WSW,245,0.0,2.0,79,0.00,,,0.00,329.00,VWS V14.01,2013-07-03 14:40:00,
2013-07-03 10:41:00,76.9,69.5,30.25,WSW,252,4.0,7.0,78,0.00,,,0.00,332.00,VWS V14.01,2013-07-03 14:41:00,
2013-07-03 10:45:00,76.6,69.2,30.25,West,275,5.0,8.0,78,0.00,,,0.00,346.00,VWS V14.01,2013-07-03 14:45:00,
2013-07-03 10:46:00,76.6,69.6,30.25,West,264,5.0,8.0,79,0.00,,,0.00,378.00,VWS V14.01,2013-07-03 14:46:00,
2013-07-03 10:50:00,76.6,69.6,30.25,WNW,288,7.0,8.0,79,0.00,,,0.00,413.00,VWS V14.01,2013-07-03 14:50:00,
2013-07-03 10:51:00,76.7,69.7,30.25,West,277,5.0,7.0,79,0.00,,,0.00,415.00,VWS V14.01,2013-07-03 14:51:00,
2013-07-03 10:55:00,76.7,69.3,30.25,WSW,248,7.0,9.0,78,0.00,,,0.00,424.00,VWS V14.01,2013-07-03 14:55:00,
2013-07-03 10:56:00,76.7,69.3,30.25,West,264,1.0,7.0,78,0.00,,,0.00,420.00,VWS V14.01,2013-07-03 14:56:00,
2013-07-03 10:58:00,76.9,69.9,30.25,West,271,5.0,7.0,79,0.00,,,0.00,425.00,VWS V14.01,2013-07-03 14:58:00,
2013-07-03 11:00:00,76.9,69.5,30.24,WSW,257,4.0,7.0,78,0.00,,,0.00,427.00,VWS V14.01,2013-07-03 15:00:00,
2013-07-03 11:03:00,77.3,69.5,30.24,WSW,244,2.0,7.0,77,0.00,,,0.00,431.00,VWS V14.01,2013-07-03 15:03:00,
2013-07-03 11:05:00,77.3,69.5,30.24,WSW,244,6.0,7.0,77,0.00,,,0.00,394.00,VWS V14.01,2013-07-03 15:05:00,
2013-07-03 11:08:00,77.3,69.5,30.24,SW,234,7.0,8.0,77,0.00,,,0.00,557.00,VWS V14.01,2013-07-03 15:08:00,
2013-07-03 11:10:00,77.3,69.5,30.24,West,273,6.0,8.0,77,0.00,,,0.00,610.00,VWS V14.01,2013-07-03 15:10:00,
2013-07-03 11:14:00,77.3,69.5,30.24,WSW,243,7.0,13.0,77,0.00,,,0.00,478.00,VWS V14.01,2013-07-03 15:14:00,
2013-07-03 11:15:00,77.3,69.5,30.24,WSW,248,8.0,8.0,77,0.00,,,0.00,483.00,VWS V14.01,2013-07-03 15:15:00,
2013-07-03 11:20:00,77.5,69.7,30.24,SW,234,2.0,7.0,77,0.00,,,0.00,455.00,VWS V14.01,2013-07-03 15:20:00,
2013-07-03 11:25:00,77.8,69.6,30.24,West,281,5.0,8.0,76,0.00,,,0.00,582.00,VWS V14.01,2013-07-03 15:25:00,
2013-07-03 11:28:00,78.2,70.0,30.24,WNW,291,0.0,8.0,76,0.00,,,0.00,388.00,VWS V14.01,2013-07-03 15:28:00,
2013-07-03 11:30:00,78.4,69.8,30.24,WSW,257,0.0,8.0,75,0.00,,,0.00,390.00,VWS V14.01,2013-07-03 15:30:00,
2013-07-03 11:33:00,78.5,69.9,30.24,West,278,6.0,7.0,75,0.00,,,0.00,448.00,VWS V14.01,2013-07-03 15:33:00,
2013-07-03 11:35:00,78.5,69.9,30.24,West,271,4.0,8.0,75,0.00,,,0.00,434.00,VWS V14.01,2013-07-03 15:35:00,
2013-07-03 11:38:00,78.4,70.2,30.24,WSW,237,5.0,8.0,76,0.00,,,0.00,411.00,VWS V14.01,2013-07-03 15:38:00,
2013-07-03 11:40:00,78.4,70.2,30.24,WSW,244,4.0,5.0,76,0.00,,,0.00,404.00,VWS V14.01,2013-07-03 15:40:00,
2013-07-03 11:45:00,78.5,69.5,30.24,WNW,300,6.0,10.0,74,0.00,,,0.00,715.00,VWS V14.01,2013-07-03 15:45:00,
2013-07-03 11:50:00,79.1,69.7,30.24,SSW,208,6.0,10.0,73,0.00,,,0.00,381.00,VWS V14.01,2013-07-03 15:50:00,
2013-07-03 11:52:00,79.1,70.1,30.24,SW,232,0.0,10.0,74,0.00,,,0.00,406.00,VWS V14.01,2013-07-03 15:52:00,
2013-07-03 11:55:00,79.1,70.1,30.24,SW,235,4.0,10.0,74,0.00,,,0.00,494.00,VWS V14.01,2013-07-03 15:55:00,
2013-07-03 11:57:00,78.9,70.3,30.24,West,268,2.0,8.0,75,0.00,,,0.00,306.00,VWS V14.01,2013-07-03 15:57:00,
2013-07-03 12:00:00,78.9,70.3,30.24,NW,309,5.0,8.0,75,0.00,,,0.00,279.00,VWS V14.01,2013-07-03 16:00:00,
2013-07-03 12:02:00,78.9,70.3,30.24,WSW,243,0.0,8.0,75,0.00,,,0.00,227.00,VWS V14.01,2013-07-03 16:02:00,
2013-07-03 12:05:00,78.7,69.7,30.24,West,275,6.0,8.0,74,0.00,,,0.00,276.00,VWS V14.01,2013-07-03 16:05:00,
2013-07-03 12:07:00,78.5,69.9,30.24,WSW,246,4.0,6.0,75,0.00,,,0.00,295.00,VWS V14.01,2013-07-03 16:07:00,
2013-07-03 12:10:00,78.7,70.9,30.24,West,280,0.0,6.0,77,0.00,,,0.00,269.00,VWS V14.01,2013-07-03 16:10:00,
2013-07-03 12:12:00,78.7,70.1,30.24,West,264,0.0,0.0,75,0.00,,,0.00,225.00,VWS V14.01,2013-07-03 16:12:00,
2013-07-03 12:15:00,78.7,70.5,30.24,SW,220,0.0,1.0,76,0.00,,,0.00,290.00,VWS V14.01,2013-07-03 16:15:00,
2013-07-03 12:17:00,78.5,70.3,30.24,West,275,3.0,7.0,76,0.00,,,0.00,353.00,VWS V14.01,2013-07-03 16:17:00,
2013-07-03 12:20:00,78.7,70.5,30.24,West,273,7.0,9.0,76,0.00,,,0.00,366.00,VWS V14.01,2013-07-03 16:20:00,
2013-07-03 12:22:00,78.5,69.9,30.24,West,272,8.0,10.0,75,0.00,,,0.00,374.00,VWS V14.01,2013-07-03 16:22:00,
2013-07-03 12:25:00,78.4,69.8,30.24,West,259,8.0,10.0,75,0.00,,,0.00,383.00,VWS V14.01,2013-07-03 16:25:00,
2013-07-03 12:27:00,78.5,69.9,30.24,SW,230,5.0,11.0,75,0.00,,,0.00,417.00,VWS V14.01,2013-07-03 16:27:00,
2013-07-03 12:30:00,78.9,71.1,30.24,South,182,0.0,11.0,77,0.00,,,0.00,418.00,VWS V14.01,2013-07-03 16:30:00,
2013-07-03 12:33:00,78.9,69.9,30.24,WSW,250,0.0,10.0,74,0.00,,,0.00,454.00,VWS V14.01,2013-07-03 16:33:00,
2013-07-03 12:35:00,78.9,70.3,30.24,WSW,238,2.0,10.0,75,0.00,,,0.00,598.00,VWS V14.01,2013-07-03 16:35:00,
2013-07-03 12:38:00,79.1,70.5,30.24,West,260,0.0,10.0,75,0.00,,,0.00,515.00,VWS V14.01,2013-07-03 16:38:00,
2013-07-03 12:40:00,79.1,70.1,30.24,West,279,4.0,10.0,74,0.00,,,0.00,492.00,VWS V14.01,2013-07-03 16:40:00,
2013-07-03 12:43:00,79.1,70.1,30.24,WSW,242,3.0,10.0,74,0.00,,,0.00,436.00,VWS V14.01,2013-07-03 16:43:00,
2013-07-03 12:45:00,79.1,70.1,30.23,West,279,6.0,10.0,74,0.00,,,0.00,424.00,VWS V14.01,2013-07-03 16:45:00,
2013-07-03 12:48:00,79.1,70.1,30.23,SSW,192,4.0,10.0,74,0.00,,,0.00,450.00,VWS V14.01,2013-07-03 16:48:00,
2013-07-03 12:50:00,79.3,69.9,30.23,West,281,7.0,10.0,73,0.00,,,0.00,501.00,VWS V14.01,2013-07-03 16:50:00,
2013-07-03 12:53:00,79.5,70.5,30.23,NW,306,0.0,8.0,74,0.00,,,0.00,475.00,VWS V14.01,2013-07-03 16:53:00,
2013-07-03 12:55:00,79.7,70.7,30.23,SW,223,7.0,8.0,74,0.00,,,0.00,503.00,VWS V14.01,2013-07-03 16:55:00,
2013-07-03 12:58:00,79.5,70.1,30.23,WSW,254,6.0,14.0,73,0.00,,,0.00,527.00,VWS V14.01,2013-07-03 16:58:00,
2013-07-03 13:00:00,79.5,70.1,30.23,West,267,7.0,14.0,73,0.00,,,0.00,527.00,VWS V14.01,2013-07-03 17:00:00,
2013-07-03 13:03:00,79.3,69.9,30.23,WSW,245,7.0,11.0,73,0.00,,,0.00,457.00,VWS V14.01,2013-07-03 17:03:00,
2013-07-03 13:05:00,79.3,69.9,30.23,WSW,245,4.0,11.0,73,0.00,,,0.00,445.00,VWS V14.01,2013-07-03 17:05:00,
2013-07-03 13:08:00,79.5,70.1,30.23,West,269,6.0,10.0,73,0.00,,,0.00,443.00,VWS V14.01,2013-07-03 17:08:00,
2013-07-03 13:10:00,79.5,70.1,30.23,SW,226,6.0,10.0,73,0.00,,,0.00,464.00,VWS V14.01,2013-07-03 17:10:00,
2013-07-03 13:14:00,79.3,69.9,30.23,WSW,238,5.0,10.0,73,0.00,,,0.00,503.00,VWS V14.01,2013-07-03 17:14:00,
2013-07-03 13:15:00,79.3,69.9,30.23,WNW,294,5.0,10.0,73,0.00,,,0.00,503.00,VWS V14.01,2013-07-03 17:15:00,
2013-07-03 13:19:00,79.7,70.3,30.23,West,271,7.0,9.0,73,0.00,,,0.00,510.00,VWS V14.01,2013-07-03 17:19:00,
2013-07-03 13:20:00,79.7,70.3,30.23,WSW,247,5.0,9.0,73,0.00,,,0.00,510.00,VWS V14.01,2013-07-03 17:20:00,
2013-07-03 13:24:00,80.2,70.4,30.23,West,261,8.0,11.0,72,0.00,,,0.00,510.00,VWS V14.01,2013-07-03 17:24:00,
2013-07-03 13:25:00,80.4,70.1,30.23,West,267,0.0,11.0,71,0.00,,,0.00,510.00,VWS V14.01,2013-07-03 17:25:00,
2013-07-03 13:29:00,80.6,69.9,30.23,WSW,240,7.0,9.0,70,0.00,,,0.00,380.00,VWS V14.01,2013-07-03 17:29:00,
2013-07-03 13:30:00,80.6,69.9,30.23,West,268,7.0,9.0,70,0.00,,,0.00,413.00,VWS V14.01,2013-07-03 17:30:00,
2013-07-03 13:34:00,80.4,70.1,30.23,South,190,5.0,8.0,71,0.00,,,0.00,338.00,VWS V14.01,2013-07-03 17:34:00,
2013-07-03 13:35:00,80.4,70.1,30.23,South,190,5.0,8.0,71,0.00,,,0.00,338.00,VWS V14.01,2013-07-03 17:35:00,
2013-07-03 13:39:00,80.4,70.6,30.23,WSW,246,5.0,5.0,72,0.00,,,0.00,373.00,VWS V14.01,2013-07-03 17:39:00,
2013-07-03 13:40:00,80.4,70.1,30.23,WSW,246,5.0,7.0,71,0.00,,,0.00,373.00,VWS V14.01,2013-07-03 17:40:00,
2013-07-03 13:44:00,80.4,70.6,30.22,West,259,2.0,6.0,72,0.00,,,0.00,471.00,VWS V14.01,2013-07-03 17:44:00,
2013-07-03 13:45:00,80.4,70.6,30.22,WSW,252,6.0,8.0,72,0.00,,,0.00,471.00,VWS V14.01,2013-07-03 17:45:00,
2013-07-03 13:49:00,80.4,71.0,30.22,WSW,250,7.0,8.0,73,0.00,,,0.00,524.00,VWS V14.01,2013-07-03 17:49:00,
2013-07-03 13:50:00,80.4,71.0,30.22,WSW,245,8.0,10.0,73,0.00,,,0.00,524.00,VWS V14.01,2013-07-03 17:50:00,
2013-07-03 13:54:00,80.6,71.2,30.22,WSW,255,9.0,10.0,73,0.00,,,0.00,555.00,VWS V14.01,2013-07-03 17:54:00,
2013-07-03 13:55:00,80.6,71.2,30.22,WNW,284,7.0,8.0,73,0.00,,,0.00,555.00,VWS V14.01,2013-07-03 17:55:00,
2013-07-03 13:59:00,80.6,70.8,30.22,West,267,5.0,7.0,72,0.00,,,0.00,555.00,VWS V14.01,2013-07-03 17:59:00,
2013-07-03 14:00:00,80.6,70.8,30.22,West,268,7.0,12.0,72,0.00,,,0.00,555.00,VWS V14.01,2013-07-03 18:00:00,
2013-07-03 14:05:00,80.6,70.3,30.22,NW,319,5.0,6.0,71,0.00,,,0.00,485.00,VWS V14.01,2013-07-03 18:05:00,
2013-07-03 14:10:00,80.6,70.3,30.22,West,272,0.0,0.0,71,0.00,,,0.00,306.00,VWS V14.01,2013-07-03 18:10:00,
2013-07-03 14:15:00,80.6,69.9,30.21,West,270,3.0,10.0,70,0.00,,,0.00,394.00,VWS V14.01,2013-07-03 18:15:00,
2013-07-03 14:20:00,80.8,70.5,30.21,West,271,6.0,9.0,71,0.00,,,0.00,313.00,VWS V14.01,2013-07-03 18:20:00,
2013-07-03 14:25:00,80.4,70.1,30.21,WSW,238,6.0,10.0,71,0.00,,,0.00,378.00,VWS V14.01,2013-07-03 18:25:00,
2013-07-03 14:26:00,80.4,71.0,30.21,WSW,246,0.0,7.0,73,0.00,,,0.00,392.00,VWS V14.01,2013-07-03 18:26:00,
2013-07-03 14:30:00,80.2,69.9,30.21,West,273,6.0,10.0,71,0.00,,,0.00,464.00,VWS V14.01,2013-07-03 18:30:00,
2013-07-03 14:31:00,80.2,69.9,30.21,WSW,247,6.0,10.0,71,0.00,,,0.00,418.00,VWS V14.01,2013-07-03 18:31:00,
2013-07-03 14:35:00,80.2,70.4,30.21,West,259,5.0,10.0,72,0.00,,,0.00,490.00,VWS V14.01,2013-07-03 18:35:00,
2013-07-03 14:36:00,80.2,69.9,30.21,West,267,4.0,5.0,71,0.00,,,0.00,450.00,VWS V14.01,2013-07-03 18:36:00,
2013-07-03 14:40:00,80.2,70.4,30.21,WSW,257,5.0,7.0,72,0.00,,,0.00,480.00,VWS V14.01,2013-07-03 18:40:00,
2013-07-03 14:41:00,80.4,70.1,30.21,WSW,248,4.0,8.0,71,0.00,,,0.00,564.00,VWS V14.01,2013-07-03 18:41:00,
2013-07-03 14:45:00,80.6,70.3,30.21,WNW,284,5.0,8.0,71,0.00,,,0.00,547.00,VWS V14.01,2013-07-03 18:45:00,
2013-07-03 14:46:00,80.8,70.1,30.21,West,275,8.0,10.0,70,0.00,,,0.00,654.00,VWS V14.01,2013-07-03 18:46:00,
2013-07-03 14:50:00,80.6,69.9,30.21,West,265,9.0,11.0,70,0.00,,,0.00,701.00,VWS V14.01,2013-07-03 18:50:00,
2013-07-03 14:51:00,80.8,70.1,30.21,West,269,8.0,10.0,70,0.00,,,0.00,599.00,VWS V14.01,2013-07-03 18:51:00,
2013-07-03 14:55:00,80.8,70.1,30.21,West,259,7.0,11.0,70,0.00,,,0.00,791.00,VWS V14.01,2013-07-03 18:55:00,
2013-07-03 14:56:00,80.8,70.1,30.21,West,262,7.0,7.0,70,0.00,,,0.00,756.00,VWS V14.01,2013-07-03 18:56:00,
2013-07-03 15:00:00,80.8,70.1,30.20,WSW,250,7.0,9.0,70,0.00,,,0.00,591.00,VWS V14.01,2013-07-03 19:00:00,
2013-07-03 15:02:00,81.0,70.3,30.20,West,281,3.0,9.0,70,0.00,,,0.00,408.00,VWS V14.01,2013-07-03 19:02:00,
2013-07-03 15:05:00,81.3,70.6,30.20,West,272,0.0,9.0,70,0.00,,,0.00,316.00,VWS V14.01,2013-07-03 19:05:00,
2013-07-03 15:07:00,81.3,70.6,30.20,West,280,2.0,5.0,70,0.00,,,0.00,397.00,VWS V14.01,2013-07-03 19:07:00,
2013-07-03 15:10:00,81.3,71.0,30.20,West,280,0.0,5.0,71,0.00,,,0.00,397.00,VWS V14.01,2013-07-03 19:10:00,
2013-07-03 15:12:00,81.9,71.2,30.20,West,280,0.0,0.0,70,0.00,,,0.00,332.00,VWS V14.01,2013-07-03 19:12:00,
2013-07-03 15:15:00,81.5,70.8,30.20,SW,230,4.0,7.0,70,0.00,,,0.00,301.00,VWS V14.01,2013-07-03 19:15:00,
2013-07-03 15:17:00,81.7,70.6,30.20,SSW,207,6.0,7.0,69,0.00,,,0.00,429.00,VWS V14.01,2013-07-03 19:17:00,
2013-07-03 15:20:00,81.5,70.8,30.20,WSW,242,4.0,7.0,70,0.00,,,0.00,302.00,VWS V14.01,2013-07-03 19:20:00,
2013-07-03 15:22:00,81.3,70.6,30.20,WSW,252,7.0,8.0,70,0.00,,,0.00,257.00,VWS V14.01,2013-07-03 19:22:00,
2013-07-03 15:25:00,81.1,70.4,30.20,West,273,7.0,8.0,70,0.00,,,0.00,306.00,VWS V14.01,2013-07-03 19:25:00,
2013-07-03 15:27:00,81.0,70.3,30.20,West,271,2.0,8.0,70,0.00,,,0.00,439.00,VWS V14.01,2013-07-03 19:27:00,
2013-07-03 15:30:00,81.3,70.6,30.20,WSW,250,2.0,8.0,70,0.00,,,0.00,454.00,VWS V14.01,2013-07-03 19:30:00,
2013-07-03 15:32:00,81.5,70.8,30.20,West,260,2.0,8.0,70,0.00,,,0.00,459.00,VWS V14.01,2013-07-03 19:32:00,
2013-07-03 15:35:00,81.5,69.9,30.20,West,272,6.0,11.0,68,0.00,,,0.00,378.00,VWS V14.01,2013-07-03 19:35:00,
2013-07-03 15:37:00,81.7,71.0,30.20,WSW,240,4.0,7.0,70,0.00,,,0.00,385.00,VWS V14.01,2013-07-03 19:37:00,
2013-07-03 15:40:00,81.5,70.4,30.20,SW,227,2.0,7.0,69,0.00,,,0.00,315.00,VWS V14.01,2013-07-03 19:40:00,
2013-07-03 15:43:00,81.5,70.4,30.20,WSW,242,0.0,6.0,69,0.00,,,0.00,318.00,VWS V14.01,2013-07-03 19:43:00,
2013-07-03 15:45:00,81.5,69.9,30.20,WSW,248,0.0,6.0,68,0.00,,,0.00,306.00,VWS V14.01,2013-07-03 19:45:00,
2013-07-03 15:48:00,81.3,69.7,30.20,SW,214,6.0,9.0,68,0.00,,,0.00,281.00,VWS V14.01,2013-07-03 19:48:00,
2013-07-03 15:50:00,81.3,70.2,30.20,WSW,254,6.0,9.0,69,0.00,,,0.00,271.00,VWS V14.01,2013-07-03 19:50:00,
2013-07-03 15:53:00,81.5,70.8,30.20,WSW,246,5.0,6.0,70,0.00,,,0.00,285.00,VWS V14.01,2013-07-03 19:53:00,
2013-07-03 15:55:00,81.5,70.8,30.20,SW,234,5.0,6.0,70,0.00,,,0.00,267.00,VWS V14.01,2013-07-03 19:55:00,
2013-07-03 15:58:00,81.3,70.2,30.20,West,277,0.0,5.0,69,0.00,,,0.00,229.00,VWS V14.01,2013-07-03 19:58:00,
2013-07-03 16:00:00,81.3,69.7,30.20,West,277,4.0,7.0,68,0.00,,,0.00,232.00,VWS V14.01,2013-07-03 20:00:00,
2013-07-03 16:03:00,81.1,70.0,30.20,WNW,285,6.0,9.0,69,0.00,,,0.00,223.00,VWS V14.01,2013-07-03 20:03:00,
2013-07-03 16:05:00,81.0,70.3,30.20,West,277,5.0,9.0,70,0.00,,,0.00,250.00,VWS V14.01,2013-07-03 20:05:00,
2013-07-03 16:08:00,81.0,70.7,30.20,WSW,246,0.0,5.0,71,0.00,,,0.00,199.00,VWS V14.01,2013-07-03 20:08:00,
2013-07-03 16:10:00,80.8,70.5,30.20,WSW,246,0.0,5.0,71,0.00,,,0.00,178.00,VWS V14.01,2013-07-03 20:10:00,
2013-07-03 16:13:00,80.6,70.3,30.19,WSW,251,2.0,5.0,71,0.00,,,0.00,135.00,VWS V14.01,2013-07-03 20:13:00,
2013-07-03 16:15:00,80.6,70.3,30.19,SW,236,0.0,5.0,71,0.00,,,0.00,130.00,VWS V14.01,2013-07-03 20:15:00,
2013-07-03 16:18:00,80.6,70.8,30.19,WSW,244,0.0,0.0,72,0.00,,,0.00,102.00,VWS V14.01,2013-07-03 20:18:00,
2013-07-03 16:20:00,80.6,70.8,30.19,WSW,244,0.0,0.0,72,0.00,,,0.00,91.00,VWS V14.01,2013-07-03 20:20:00,
2013-07-03 16:23:00,80.8,70.9,30.19,WSW,249,0.0,5.0,72,0.00,,,0.00,84.00,VWS V14.01,2013-07-03 20:23:00,
2013-07-03 16:25:00,80.8,70.9,30.19,WSW,249,0.0,5.0,72,0.00,,,0.00,84.00,VWS V14.01,2013-07-03 20:25:00,
2013-07-03 16:28:00,80.8,70.9,30.20,SW,232,2.0,5.0,72,0.00,,,0.00,58.00,VWS V14.01,2013-07-03 20:28:00,
2013-07-03 16:30:00,80.8,70.9,30.20,SW,226,4.0,5.0,72,0.00,,,0.00,53.00,VWS V14.01,2013-07-03 20:30:00,
2013-07-03 16:33:00,80.8,71.3,30.20,WSW,242,0.0,4.0,73,0.00,,,0.00,77.00,VWS V14.01,2013-07-03 20:33:00,
2013-07-03 16:35:00,80.8,71.3,30.20,WSW,242,0.0,4.0,73,0.00,,,0.00,95.00,VWS V14.01,2013-07-03 20:35:00,
2013-07-03 16:38:00,80.8,71.7,30.20,West,263,0.0,1.0,74,0.00,,,0.00,216.00,VWS V14.01,2013-07-03 20:38:00,
2013-07-03 16:40:00,80.8,71.3,30.20,West,263,0.0,1.0,73,0.00,,,0.00,223.00,VWS V14.01,2013-07-03 20:40:00,
2013-07-03 16:43:00,80.8,71.3,30.20,West,277,5.0,6.0,73,0.00,,,0.00,204.00,VWS V14.01,2013-07-03 20:43:00,
2013-07-03 16:45:00,80.8,71.3,30.20,SW,231,5.0,6.0,73,0.00,,,0.00,167.00,VWS V14.01,2013-07-03 20:45:00,
2013-07-03 16:48:00,80.8,71.7,30.20,WSW,254,0.0,5.0,74,0.00,,,0.00,123.00,VWS V14.01,2013-07-03 20:48:00,
2013-07-03 16:50:00,80.8,71.8,30.20,WSW,254,0.0,5.0,74,0.00,,,0.00,125.00,VWS V14.01,2013-07-03 20:50:00,
2013-07-03 16:53:00,80.8,71.7,30.20,NNW,328,0.0,7.0,74,0.00,,,0.00,158.00,VWS V14.01,2013-07-03 20:53:00,
2013-07-03 16:55:00,80.8,71.8,30.20,NNW,328,0.0,7.0,74,0.00,,,0.00,172.00,VWS V14.01,2013-07-03 20:55:00,
2013-07-03 16:58:00,80.6,71.6,30.20,NW,308,0.0,7.0,74,0.00,,,0.00,202.00,VWS V14.01,2013-07-03 20:58:00,
2013-07-03 17:00:00,80.6,71.6,30.20,NW,307,2.0,7.0,74,0.00,,,0.00,202.00,VWS V14.01,2013-07-03 21:00:00,
2013-07-03 17:03:00,80.4,71.8,30.20,WNW,282,4.0,5.0,75,0.00,,,0.00,200.00,VWS V14.01,2013-07-03 21:03:00,
2013-07-03 17:05:00,80.4,71.8,30.20,WNW,282,0.0,5.0,75,0.00,,,0.00,197.00,VWS V14.01,2013-07-03 21:05:00,
2013-07-03 17:08:00,80.2,71.9,30.20,WNW,300,4.0,5.0,76,0.00,,,0.00,186.00,VWS V14.01,2013-07-03 21:08:00,
2013-07-03 17:10:00,80.2,71.9,30.20,WNW,300,0.0,5.0,76,0.00,,,0.00,188.00,VWS V14.01,2013-07-03 21:10:00,
2013-07-03 17:14:00,80.2,71.9,30.20,WNW,300,0.0,1.0,76,0.00,,,0.00,179.00,VWS V14.01,2013-07-03 21:14:00,
2013-07-03 17:15:00,80.2,71.9,30.20,West,269,6.0,6.0,76,0.00,,,0.00,181.00,VWS V14.01,2013-07-03 21:15:00,
2013-07-03 17:19:00,80.0,72.2,30.20,West,268,0.0,8.0,77,0.00,,,0.00,229.00,VWS V14.01,2013-07-03 21:19:00,
2013-07-03 17:20:00,80.0,72.2,30.20,West,268,0.0,8.0,77,0.00,,,0.00,287.00,VWS V14.01,2013-07-03 21:20:00,
2013-07-03 17:24:00,80.0,72.2,30.20,WSW,254,0.0,6.0,77,0.00,,,0.00,236.00,VWS V14.01,2013-07-03 21:24:00,
2013-07-03 17:25:00,79.8,71.9,30.20,WSW,254,0.0,6.0,77,0.00,,,0.00,225.00,VWS V14.01,2013-07-03 21:25:00,
2013-07-03 17:29:00,80.0,72.2,30.20,WNW,289,0.0,1.0,77,0.00,,,0.00,185.00,VWS V14.01,2013-07-03 21:29:00,
2013-07-03 17:30:00,80.0,72.2,30.20,WNW,289,0.0,1.0,77,0.00,,,0.00,185.00,VWS V14.01,2013-07-03 21:30:00,
2013-07-03 17:34:00,80.0,72.2,30.20,WNW,289,0.0,0.0,77,0.00,,,0.00,213.00,VWS V14.01,2013-07-03 21:34:00,
2013-07-03 17:35:00,80.0,72.2,30.20,WNW,289,0.0,0.0,77,0.00,,,0.00,213.00,VWS V14.01,2013-07-03 21:35:00,
2013-07-03 17:39:00,80.2,72.3,30.20,WNW,288,0.0,0.0,77,0.00,,,0.00,190.00,VWS V14.01,2013-07-03 21:39:00,
2013-07-03 17:40:00,80.2,72.3,30.20,WNW,288,0.0,0.0,77,0.00,,,0.00,190.00,VWS V14.01,2013-07-03 21:40:00,
2013-07-03 17:44:00,80.4,72.2,30.18,WNW,288,0.0,0.0,76,0.00,,,0.00,192.00,VWS V14.01,2013-07-03 21:44:00,
2013-07-03 17:45:00,80.4,72.2,30.18,WNW,288,0.0,0.0,76,0.00,,,0.00,192.00,VWS V14.01,2013-07-03 21:45:00,
2013-07-03 17:49:00,80.6,72.3,30.18,WNW,288,0.0,0.0,76,0.00,,,0.00,541.00,VWS V14.01,2013-07-03 21:49:00,
2013-07-03 17:50:00,80.6,72.3,30.18,WNW,288,0.0,0.0,76,0.00,,,0.00,541.00,VWS V14.01,2013-07-03 21:50:00,
2013-07-03 17:54:00,81.1,72.0,30.18,WNW,288,0.0,1.0,74,0.00,,,0.00,401.00,VWS V14.01,2013-07-03 21:54:00,
2013-07-03 17:55:00,81.1,72.0,30.18,WNW,288,0.0,1.0,74,0.00,,,0.00,401.00,VWS V14.01,2013-07-03 21:55:00,
2013-07-03 17:59:00,81.9,72.0,30.18,WNW,300,0.0,0.0,72,0.00,,,0.00,422.00,VWS V14.01,2013-07-03 21:59:00,
2013-07-03 18:00:00,81.9,72.0,30.18,WNW,300,0.0,0.0,72,0.00,,,0.00,422.00,VWS V14.01,2013-07-03 22:00:00,
2013-07-03 18:05:00,82.5,71.7,30.18,West,280,0.0,4.0,70,0.00,,,0.00,403.00,VWS V14.01,2013-07-03 22:05:00,
2013-07-03 18:10:00,83.1,72.3,30.18,WNW,303,0.0,0.0,70,0.00,,,0.00,381.00,VWS V14.01,2013-07-03 22:10:00,
2013-07-03 18:15:00,84.0,72.3,30.18,NNW,327,0.0,0.0,68,0.00,,,0.00,378.00,VWS V14.01,2013-07-03 22:15:00,
2013-07-03 18:20:00,83.9,71.3,30.18,WNW,288,4.0,5.0,66,0.00,,,0.00,410.00,VWS V14.01,2013-07-03 22:20:00,
2013-07-03 18:25:00,83.9,71.8,30.18,WNW,284,0.0,6.0,67,0.00,,,0.00,394.00,VWS V14.01,2013-07-03 22:25:00,
2013-07-03 18:30:00,84.0,71.9,30.18,West,269,0.0,0.0,67,0.00,,,0.00,371.00,VWS V14.01,2013-07-03 22:30:00,
2013-07-03 18:35:00,84.0,71.4,30.18,NW,325,0.0,1.0,66,0.00,,,0.00,295.00,VWS V14.01,2013-07-03 22:35:00,
2013-07-03 18:40:00,84.0,71.4,30.18,NW,313,0.0,4.0,66,0.00,,,0.00,84.00,VWS V14.01,2013-07-03 22:40:00,
2013-07-03 18:45:00,83.9,71.3,30.18,West,277,0.0,0.0,66,0.00,,,0.00,91.00,VWS V14.01,2013-07-03 22:45:00,
2013-07-03 18:50:00,83.5,71.8,30.18,West,265,0.0,0.0,68,0.00,,,0.00,130.00,VWS V14.01,2013-07-03 22:50:00,
2013-07-03 18:55:00,83.1,71.9,30.18,West,262,0.0,1.0,69,0.00,,,0.00,88.00,VWS V14.01,2013-07-03 22:55:00,
2013-07-03 18:56:00,83.1,71.9,30.18,West,262,0.0,1.0,69,0.00,,,0.00,134.00,VWS V14.01,2013-07-03 22:56:00,
2013-07-03 19:00:00,82.7,71.5,30.19,West,262,0.0,1.0,69,0.00,,,0.00,113.00,VWS V14.01,2013-07-03 23:00:00,
2013-07-03 19:01:00,82.7,71.9,30.19,West,259,0.0,1.0,70,0.00,,,0.00,86.00,VWS V14.01,2013-07-03 23:01:00,
2013-07-03 19:05:00,82.3,71.5,30.19,West,262,0.0,1.0,70,0.00,,,0.00,135.00,VWS V14.01,2013-07-03 23:05:00,
2013-07-03 19:06:00,82.3,72.0,30.19,West,262,0.0,1.0,71,0.00,,,0.00,118.00,VWS V14.01,2013-07-03 23:06:00,
2013-07-03 19:10:00,81.9,72.0,30.19,West,262,0.0,1.0,72,0.00,,,0.00,81.00,VWS V14.01,2013-07-03 23:10:00,
2013-07-03 19:11:00,81.9,72.0,30.19,West,262,0.0,0.0,72,0.00,,,0.00,86.00,VWS V14.01,2013-07-03 23:11:00,
2013-07-03 19:15:00,81.7,71.8,30.18,West,275,0.0,4.0,72,0.00,,,0.00,88.00,VWS V14.01,2013-07-03 23:15:00,
2013-07-03 19:16:00,81.5,72.0,30.18,West,275,0.0,0.0,73,0.00,,,0.00,84.00,VWS V14.01,2013-07-03 23:16:00,
2013-07-03 19:20:00,81.3,71.8,30.18,West,273,4.0,4.0,73,0.00,,,0.00,104.00,VWS V14.01,2013-07-03 23:20:00,
2013-07-03 19:21:00,81.3,71.8,30.18,West,273,0.0,4.0,73,0.00,,,0.00,197.00,VWS V14.01,2013-07-03 23:21:00,
2013-07-03 19:25:00,81.3,72.2,30.18,SSW,203,0.0,4.0,74,0.00,,,0.00,200.00,VWS V14.01,2013-07-03 23:25:00,
2013-07-03 19:26:00,81.5,72.0,30.18,SSW,204,0.0,0.0,73,0.00,,,0.00,193.00,VWS V14.01,2013-07-03 23:26:00,
2013-07-03 19:30:00,81.5,72.0,30.19,SSW,204,0.0,0.0,73,0.00,,,0.00,202.00,VWS V14.01,2013-07-03 23:30:00,
2013-07-03 19:32:00,81.7,72.2,30.19,SSW,204,0.0,0.0,73,0.00,,,0.00,144.00,VWS V14.01,2013-07-03 23:32:00,
2013-07-03 19:35:00,81.7,72.2,30.19,WSW,250,0.0,1.0,73,0.00,,,0.00,160.00,VWS V14.01,2013-07-03 23:35:00,
2013-07-03 19:37:00,81.7,72.2,30.19,West,270,0.0,1.0,73,0.00,,,0.00,158.00,VWS V14.01,2013-07-03 23:37:00,
2013-07-03 19:40:00,81.7,72.2,30.19,WSW,238,2.0,6.0,73,0.00,,,0.00,79.00,VWS V14.01,2013-07-03 23:40:00,
2013-07-03 19:42:00,81.7,72.2,30.19,SW,228,0.0,4.0,73,0.00,,,0.00,63.00,VWS V14.01,2013-07-03 23:42:00,
2013-07-03 19:45:00,81.7,72.2,30.18,West,279,0.0,4.0,73,0.00,,,0.00,60.00,VWS V14.01,2013-07-03 23:45:00,
2013-07-03 19:47:00,81.5,72.0,30.18,West,279,0.0,1.0,73,0.00,,,0.00,47.00,VWS V14.01,2013-07-03 23:47:00,
2013-07-03 19:50:00,81.3,71.8,30.18,West,279,0.0,1.0,73,0.00,,,0.00,44.00,VWS V14.01,2013-07-03 23:50:00,
2013-07-03 19:52:00,81.3,72.2,30.18,West,279,0.0,0.0,74,0.00,,,0.00,39.00,VWS V14.01,2013-07-03 23:52:00,
2013-07-03 19:55:00,81.3,72.2,30.18,West,279,0.0,0.0,74,0.00,,,0.00,35.00,VWS V14.01,2013-07-03 23:55:00,
2013-07-03 19:57:00,81.1,72.0,30.18,West,279,0.0,0.0,74,0.00,,,0.00,32.00,VWS V14.01,2013-07-03 23:57:00,
2013-07-03 20:00:00,81.1,72.0,30.19,West,279,0.0,0.0,74,0.00,,,0.00,28.00,VWS V14.01,2013-07-04 00:00:00,
2013-07-03 20:02:00,81.0,72.3,30.19,West,279,0.0,0.0,75,0.00,,,0.00,25.00,VWS V14.01,2013-07-04 00:02:00,
2013-07-03 20:05:00,81.0,72.3,30.19,West,279,0.0,0.0,75,0.00,,,0.00,23.00,VWS V14.01,2013-07-04 00:05:00,
2013-07-03 20:07:00,81.0,72.7,30.19,West,279,0.0,0.0,76,0.00,,,0.00,21.00,VWS V14.01,2013-07-04 00:07:00,
2013-07-03 20:10:00,80.8,72.5,30.19,West,279,0.0,0.0,76,0.00,,,0.00,21.00,VWS V14.01,2013-07-04 00:10:00,
2013-07-03 20:12:00,80.8,72.5,30.19,West,279,0.0,0.0,76,0.00,,,0.00,19.00,VWS V14.01,2013-07-04 00:12:00,
2013-07-03 20:15:00,80.6,72.3,30.20,West,279,0.0,0.0,76,0.00,,,0.00,18.00,VWS V14.01,2013-07-04 00:15:00,
2013-07-03 20:17:00,80.6,72.7,30.20,West,279,0.0,0.0,77,0.00,,,0.00,16.00,VWS V14.01,2013-07-04 00:17:00,
2013-07-03 20:20:00,80.4,72.5,30.20,West,279,0.0,0.0,77,0.00,,,0.00,14.00,VWS V14.01,2013-07-04 00:20:00,
2013-07-03 20:22:00,80.2,72.3,30.20,West,279,0.0,0.0,77,0.00,,,0.00,12.00,VWS V14.01,2013-07-04 00:22:00,
2013-07-03 20:25:00,80.2,72.7,30.20,West,279,0.0,0.0,78,0.00,,,0.00,11.00,VWS V14.01,2013-07-04 00:25:00,
2013-07-03 20:27:00,80.0,72.5,30.20,West,279,0.0,0.0,78,0.00,,,0.00,9.00,VWS V14.01,2013-07-04 00:27:00,
2013-07-03 20:30:00,79.8,72.3,30.21,West,279,0.0,0.0,78,0.00,,,0.00,9.00,VWS V14.01,2013-07-04 00:30:00,
2013-07-03 20:32:00,79.8,72.3,30.21,West,279,0.0,0.0,78,0.00,,,0.00,5.00,VWS V14.01,2013-07-04 00:32:00,
2013-07-03 20:35:00,79.7,72.6,30.21,West,279,0.0,0.0,79,0.00,,,0.00,5.00,VWS V14.01,2013-07-04 00:35:00,
2013-07-03 20:38:00,79.5,72.4,30.21,West,279,0.0,0.0,79,0.00,,,0.00,0.00,VWS V14.01,2013-07-04 00:38:00,
2013-07-03 20:40:00,79.5,72.4,30.21,West,279,0.0,0.0,79,0.00,,,0.00,0.00,VWS V14.01,2013-07-04 00:40:00,
2013-07-03 20:43:00,79.3,72.6,30.21,West,279,0.0,0.0,80,0.00,,,0.00,0.00,VWS V14.01,2013-07-04 00:43:00,
2013-07-03 20:45:00,79.1,72.4,30.21,West,279,0.0,0.0,80,0.00,,,0.00,0.00,VWS V14.01,2013-07-04 00:45:00,
2013-07-03 20:48:00,78.9,72.2,30.21,West,279,0.0,0.0,80,0.00,,,0.00,0.00,VWS V14.01,2013-07-04 00:48:00,
2013-07-03 20:50:00,78.7,72.4,30.21,West,279,0.0,0.0,81,0.00,,,0.00,0.00,VWS V14.01,2013-07-04 00:50:00,
2013-07-03 20:53:00,78.4,72.1,30.21,West,279,0.0,0.0,81,0.00,,,0.00,0.00,VWS V14.01,2013-07-04 00:53:00,
2013-07-03 20:55:00,78.4,72.1,30.21,West,279,0.0,0.0,81,0.00,,,0.00,0.00,VWS V14.01,2013-07-04 00:55:00,
2013-07-03 20:58:00,78.0,72.1,30.21,West,279,0.0,0.0,82,0.00,,,0.00,0.00,VWS V14.01,2013-07-04 00:58:00,
2013-07-03 21:00:00,78.0,72.1,30.21,West,279,0.0,0.0,82,0.00,,,0.00,0.00,VWS V14.01,2013-07-04 01:00:00,
2013-07-03 21:03:00,77.6,71.7,30.21,West,279,0.0,0.0,82,0.00,,,0.00,0.00,VWS V14.01,2013-07-04 01:03:00,
2013-07-03 21:05:00,77.6,72.0,30.21,West,279,0.0,0.0,83,0.00,,,0.00,0.00,VWS V14.01,2013-07-04 01:05:00,
2013-07-03 21:08:00,77.3,71.7,30.21,West,279,0.0,0.0,83,0.00,,,0.00,0.00,VWS V14.01,2013-07-04 01:08:00,
2013-07-03 21:10:00,77.3,71.7,30.21,West,279,0.0,0.0,83,0.00,,,0.00,0.00,VWS V14.01,2013-07-04 01:10:00,
2013-07-03 21:13:00,77.1,71.9,30.21,West,279,0.0,0.0,84,0.00,,,0.00,0.00,VWS V14.01,2013-07-04 01:13:00,
2013-07-03 21:15:00,76.9,71.7,30.21,West,279,0.0,0.0,84,0.00,,,0.00,0.00,VWS V14.01,2013-07-04 01:15:00,
2013-07-03 21:18:00,76.7,71.9,30.21,West,279,0.0,0.0,85,0.00,,,0.00,0.00,VWS V14.01,2013-07-04 01:18:00,
2013-07-03 21:20:00,76.7,71.9,30.21,West,279,0.0,0.0,85,0.00,,,0.00,0.00,VWS V14.01,2013-07-04 01:20:00,
2013-07-03 21:23:00,76.6,71.8,30.21,West,279,0.0,0.0,85,0.00,,,0.00,0.00,VWS V14.01,2013-07-04 01:23:00,
2013-07-03 21:25:00,76.6,71.8,30.21,West,279,0.0,0.0,85,0.00,,,0.00,0.00,VWS V14.01,2013-07-04 01:25:00,
2013-07-03 21:28:00,76.4,71.9,30.22,West,279,0.0,0.0,86,0.00,,,0.00,0.00,VWS V14.01,2013-07-04 01:28:00,
2013-07-03 21:30:00,76.2,71.7,30.22,West,279,0.0,0.0,86,0.00,,,0.00,0.00,VWS V14.01,2013-07-04 01:30:00,
2013-07-03 21:34:00,76.0,71.9,30.22,West,279,0.0,0.0,87,0.00,,,0.00,0.00,VWS V14.01,2013-07-04 01:34:00,
2013-07-03 21:35:00,76.0,71.9,30.22,West,279,0.0,0.0,87,0.00,,,0.00,0.00,VWS V14.01,2013-07-04 01:35:00,
2013-07-03 21:39:00,75.9,71.8,30.22,West,279,0.0,0.0,87,0.00,,,0.00,0.00,VWS V14.01,2013-07-04 01:39:00,
2013-07-03 21:40:00,75.9,71.8,30.22,West,279,0.0,0.0,87,0.00,,,0.00,0.00,VWS V14.01,2013-07-04 01:40:00,
2013-07-03 21:44:00,75.9,72.1,30.22,WNW,284,0.0,0.0,88,0.00,,,0.00,0.00,VWS V14.01,2013-07-04 01:44:00,
2013-07-03 21:45:00,75.9,72.1,30.22,WNW,284,0.0,0.0,88,0.00,,,0.00,0.00,VWS V14.01,2013-07-04 01:45:00,
2013-07-03 21:49:00,75.7,71.9,30.22,WNW,284,0.0,0.0,88,0.00,,,0.00,0.00,VWS V14.01,2013-07-04 01:49:00,
2013-07-03 21:50:00,75.7,71.9,30.22,WNW,284,0.0,0.0,88,0.00,,,0.00,0.00,VWS V14.01,2013-07-04 01:50:00,
2013-07-03 21:54:00,75.5,72.0,30.22,WNW,284,0.0,0.0,89,0.00,,,0.00,0.00,VWS V14.01,2013-07-04 01:54:00,
2013-07-03 21:55:00,75.5,72.0,30.22,WNW,284,0.0,0.0,89,0.00,,,0.00,0.00,VWS V14.01,2013-07-04 01:55:00,
2013-07-03 21:59:00,75.3,71.8,30.22,WNW,284,0.0,0.0,89,0.00,,,0.00,0.00,VWS V14.01,2013-07-04 01:59:00,
2013-07-03 22:00:00,75.3,71.8,30.22,WNW,284,0.0,0.0,89,0.00,,,0.00,0.00,VWS V14.01,2013-07-04 02:00:00,
2013-07-03 22:04:00,75.3,72.2,30.22,WNW,284,0.0,0.0,90,0.00,,,0.00,0.00,VWS V14.01,2013-07-04 02:04:00,
2013-07-03 22:05:00,75.3,72.2,30.22,WNW,284,0.0,0.0,90,0.00,,,0.00,0.00,VWS V14.01,2013-07-04 02:05:00,
2013-07-03 22:09:00,75.2,72.1,30.22,WNW,284,0.0,0.0,90,0.00,,,0.00,0.00,VWS V14.01,2013-07-04 02:09:00,
2013-07-03 22:10:00,75.2,72.1,30.22,WNW,284,0.0,0.0,90,0.00,,,0.00,0.00,VWS V14.01,2013-07-04 02:10:00,
2013-07-03 22:14:00,75.2,72.1,30.23,WNW,284,0.0,0.0,90,0.00,,,0.00,0.00,VWS V14.01,2013-07-04 02:14:00,
2013-07-03 22:15:00,75.2,72.1,30.23,WNW,284,0.0,0.0,90,0.00,,,0.00,0.00,VWS V14.01,2013-07-04 02:15:00,
2013-07-03 22:19:00,75.3,72.2,30.23,WNW,284,0.0,0.0,90,0.00,,,0.00,0.00,VWS V14.01,2013-07-04 02:19:00,
2013-07-03 22:20:00,75.3,72.2,30.23,WNW,284,0.0,0.0,90,0.00,,,0.00,0.00,VWS V14.01,2013-07-04 02:20:00,
2013-07-03 22:24:00,75.3,72.2,30.23,WNW,284,0.0,0.0,90,0.00,,,0.00,0.00,VWS V14.01,2013-07-04 02:24:00,
2013-07-03 22:25:00,75.3,72.2,30.23,WNW,284,0.0,1.0,90,0.00,,,0.00,0.00,VWS V14.01,2013-07-04 02:25:00,
2013-07-03 22:30:00,75.3,72.5,30.23,WNW,284,0.0,0.0,91,0.00,,,0.00,0.00,VWS V14.01,2013-07-04 02:30:00,
2013-07-03 22:35:00,75.3,72.2,30.23,WNW,284,0.0,0.0,90,0.00,,,0.00,0.00,VWS V14.01,2013-07-04 02:35:00,
2013-07-03 22:40:00,75.3,72.2,30.23,WSW,242,1.0,5.0,90,0.00,,,0.00,0.00,VWS V14.01,2013-07-04 02:40:00,
2013-07-03 22:45:00,75.3,71.8,30.23,SW,233,0.0,0.0,89,0.00,,,0.00,0.00,VWS V14.01,2013-07-04 02:45:00,
2013-07-03 22:50:00,75.3,71.5,30.23,SW,221,0.0,0.0,88,0.00,,,0.00,0.00,VWS V14.01,2013-07-04 02:50:00,
2013-07-03 22:55:00,75.5,71.7,30.23,SW,222,2.0,2.0,88,0.00,,,0.00,0.00,VWS V14.01,2013-07-04 02:55:00,
2013-07-03 23:00:00,75.5,71.7,30.23,SW,236,0.0,0.0,88,0.00,,,0.00,0.00,VWS V14.01,2013-07-04 03:00:00,
2013-07-03 23:05:00,75.3,71.5,30.23,WSW,247,0.0,0.0,88,0.00,,,0.00,0.00,VWS V14.01,2013-07-04 03:05:00,
2013-07-03 23:10:00,75.3,71.5,30.23,WSW,247,0.0,0.0,88,0.00,,,0.00,0.00,VWS V14.01,2013-07-04 03:10:00,
2013-07-03 23:15:00,75.3,71.5,30.23,WSW,246,0.0,0.0,88,0.00,,,0.00,0.00,VWS V14.01,2013-07-04 03:15:00,
2013-07-03 23:20:00,75.2,71.4,30.23,WSW,246,2.0,2.0,88,0.00,,,0.00,0.00,VWS V14.01,2013-07-04 03:20:00,
2013-07-03 23:25:00,75.2,71.4,30.23,SSW,211,0.0,0.0,88,0.00,,,0.00,0.00,VWS V14.01,2013-07-04 03:25:00,
2013-07-03 23:30:00,75.5,71.7,30.23,SSW,196,5.0,5.0,88,0.00,,,0.00,0.00,VWS V14.01,2013-07-04 03:30:00,
2013-07-03 23:35:00,75.7,71.6,30.23,West,259,1.0,5.0,87,0.00,,,0.00,0.00,VWS V14.01,2013-07-04 03:35:00,
2013-07-03 23:40:00,75.9,71.4,30.23,WSW,255,1.0,1.0,86,0.00,,,0.00,0.00,VWS V14.01,2013-07-04 03:40:00,
2013-07-03 23:45:00,75.9,71.4,30.23,WSW,239,0.0,3.0,86,0.00,,,0.00,0.00,VWS V14.01,2013-07-04 03:45:00,
2013-07-03 23:46:00,75.9,71.4,30.23,WSW,239,0.0,0.0,86,0.00,,,0.00,0.00,VWS V14.01,2013-07-04 03:46:00,
2013-07-03 23:50:00,75.9,71.1,30.23,WSW,239,0.0,2.0,85,0.00,,,0.00,0.00,VWS V14.01,2013-07-04 03:50:00,
2013-07-03 23:51:00,75.9,71.1,30.23,WSW,239,0.0,0.0,85,0.00,,,0.00,0.00,VWS V14.01,2013-07-04 03:51:00,
2013-07-03 23:55:00,75.9,71.1,30.23,WSW,239,0.0,0.0,85,0.00,,,0.00,0.00,VWS V14.01,2013-07-04 03:55:00,
2013-07-03 23:56:00,75.9,71.1,30.23,WSW,239,0.0,0.0,85,0.00,,,0.00,0.00,VWS V14.01,2013-07-04 03:56:00,